When you browse on this site, cookies collect data to enhance your experience and personalize the content and advertising you see.
Visit our Privacy Policy to learn more. By continuing to use the site, you agree to this use of cookies and data.

Hourly Weather Mazari Sharif

Today, 10 July, Friday

Time Temperature Precipitation Wind Pressure Humidity
00:00 +24°C° 0 mm 2 mps 651 mmHg 19%
01:00 +24°C° 0 mm 2 mps 651 mmHg 20%
02:00 +24°C° 0 mm 2 mps 651 mmHg 21%
03:00 +23°C° 0 mm 2 mps 651 mmHg 21%
04:00 +23°C° 0 mm 2 mps 650 mmHg 22%
05:00 +25°C° 0 mm 3 mps 651 mmHg 20%
06:00 +26°C° 0 mm 3 mps 652 mmHg 18%
07:00 +28°C° 0 mm 3 mps 653 mmHg 16%
08:00 +30°C° 0 mm 4 mps 653 mmHg 16%
09:00 +32°C° 0 mm 4 mps 653 mmHg 15%
10:00 +33°C° 0 mm 4 mps 654 mmHg 14%
11:00 +34°C° 0 mm 5 mps 654 mmHg 13%
12:00 +34°C° 0 mm 5 mps 653 mmHg 13%
13:00 +35°C° 0 mm 6 mps 653 mmHg 12%
14:00 +35°C° 0 mm 6 mps 653 mmHg 12%
15:00 +35°C° 0 mm 6 mps 653 mmHg 11%
16:00 +35°C° 0 mm 6 mps 653 mmHg 11%
17:00 +34°C° 0 mm 5 mps 653 mmHg 12%
18:00 +32°C° 0 mm 5 mps 653 mmHg 13%
19:00 +29°C° 0 mm 4 mps 652 mmHg 14%
20:00 +28°C° 0 mm 3 mps 652 mmHg 17%
21:00 +27°C° 0 mm 2 mps 652 mmHg 19%
22:00 +25°C° 0 mm 1 mps 651 mmHg 21%
23:00 +25°C° 0 mm 1 mps 651 mmHg 21%

Tomorrow, 11 July, Saturday

Time Temperature Precipitation Wind Pressure Humidity
00:00 +25°C° 0 mm 2 mps 651 mmHg 22%
01:00 +24°C° 0 mm 2 mps 650 mmHg 22%
02:00 +24°C° 0 mm 2 mps 650 mmHg 23%
03:00 +23°C° 0 mm 2 mps 650 mmHg 23%
04:00 +23°C° 0 mm 2 mps 650 mmHg 23%
05:00 +25°C° 0 mm 3 mps 651 mmHg 22%
06:00 +27°C° 0 mm 4 mps 652 mmHg 20%
07:00 +29°C° 0 mm 5 mps 652 mmHg 18%
08:00 +30°C° 0 mm 7 mps 652 mmHg 18%
09:00 +32°C° 0 mm 8 mps 653 mmHg 18%
10:00 +33°C° 0 mm 10 mps 653 mmHg 18%
11:00 +34°C° 0 mm 9 mps 652 mmHg 18%
12:00 +34°C° 0 mm 9 mps 652 mmHg 18%
13:00 +34°C° 0 mm 9 mps 652 mmHg 18%
14:00 +33°C° 0 mm 9 mps 651 mmHg 18%
15:00 +33°C° 0 mm 9 mps 651 mmHg 19%
16:00 +32°C° 0 mm 9 mps 651 mmHg 20%
17:00 +30°C° 0 mm 7 mps 651 mmHg 21%
18:00 +29°C° 0 mm 5 mps 651 mmHg 23%
19:00 +27°C° 0 mm 3 mps 651 mmHg 25%
20:00 +26°C° 0 mm 3 mps 651 mmHg 26%
21:00 +26°C° 0 mm 3 mps 651 mmHg 28%
22:00 +25°C° 0 mm 3 mps 650 mmHg 30%
23:00 +24°C° 0 mm 3 mps 650 mmHg 31%

Day after tomorrow, 12 July, Sunday

Time Temperature Precipitation Wind Pressure Humidity
00:00 +22°C° 0 mm 3 mps 650 mmHg 32%
01:00 +23°C° 0 mm 2 mps 650 mmHg 34%
02:00 +21°C° 0 mm 2 mps 650 mmHg 35%
03:00 +21°C° 0 mm 2 mps 649 mmHg 37%
04:00 +21°C° 0 mm 1 mps 649 mmHg 38%
05:00 +23°C° 0 mm 2 mps 650 mmHg 34%
06:00 +24°C° 0 mm 2 mps 651 mmHg 31%
07:00 +26°C° 0 mm 2 mps 651 mmHg 27%
08:00 +27°C° 0 mm 2 mps 652 mmHg 26%
09:00 +28°C° 0 mm 3 mps 652 mmHg 24%
10:00 +29°C° 0 mm 4 mps 652 mmHg 23%
11:00 +30°C° 0 mm 4 mps 652 mmHg 21%
12:00 +32°C° 0 mm 4 mps 651 mmHg 20%
13:00 +33°C° 0 mm 4 mps 651 mmHg 19%
14:00 +33°C° 0 mm 4 mps 651 mmHg 19%
15:00 +33°C° 0 mm 4 mps 651 mmHg 19%
16:00 +33°C° 0 mm 4 mps 651 mmHg 19%
17:00 +30°C° 0 mm 4 mps 651 mmHg 22%
18:00 +29°C° 0 mm 4 mps 650 mmHg 25%
19:00 +27°C° 0 mm 3 mps 650 mmHg 28%
20:00 +26°C° 0 mm 2 mps 650 mmHg 30%
21:00 +25°C° 0 mm 2 mps 650 mmHg 31%
22:00 +25°C° 0 mm 1 mps 650 mmHg 33%
23:00 +24°C° 0 mm 1 mps 649 mmHg 34%

13 July, Monday

Time Temperature Precipitation Wind Pressure Humidity
00:00 +24°C° 0 mm 1 mps 649 mmHg 35%
01:00 +23°C° 0 mm 1 mps 648 mmHg 36%
02:00 +22°C° 0 mm 1 mps 648 mmHg 37%
03:00 +22°C° 0 mm 1 mps 648 mmHg 38%
04:00 +21°C° 0 mm 1 mps 647 mmHg 39%
05:00 +23°C° 0 mm 1 mps 648 mmHg 35%
06:00 +25°C° 0 mm 1 mps 649 mmHg 31%
07:00 +28°C° 0 mm 1 mps 650 mmHg 26%
08:00 +29°C° 0 mm 1 mps 650 mmHg 24%
09:00 +30°C° 0 mm 1 mps 650 mmHg 23%
10:00 +31°C° 0 mm 2 mps 650 mmHg 21%
11:00 +32°C° 0 mm 2 mps 650 mmHg 20%
12:00 +34°C° 0 mm 3 mps 650 mmHg 18%
13:00 +35°C° 0 mm 3 mps 650 mmHg 17%
14:00 +35°C° 0 mm 3 mps 649 mmHg 16%
15:00 +35°C° 0 mm 3 mps 649 mmHg 16%
16:00 +35°C° 0 mm 4 mps 649 mmHg 16%
17:00 +34°C° 0 mm 3 mps 649 mmHg 17%
18:00 +31°C° 0 mm 2 mps 649 mmHg 19%
19:00 +30°C° 0 mm 2 mps 649 mmHg 20%
20:00 +29°C° 0 mm 2 mps 649 mmHg 22%
21:00 +28°C° 0 mm 1 mps 648 mmHg 23%
22:00 +27°C° 0 mm 1 mps 648 mmHg 24%
23:00 +26°C° 0 mm 1 mps 648 mmHg 25%

14 July, Tuesday

Time Temperature Precipitation Wind Pressure Humidity
00:00 +26°C° 0 mm 1 mps 648 mmHg 25%
01:00 +26°C° 0 mm 1 mps 648 mmHg 26%
02:00 +25°C° 0.1 mm 1 mps 648 mmHg 28%
03:00 +25°C° 0.1 mm 1 mps 648 mmHg 30%
04:00 +24°C° 0.1 mm 1 mps 648 mmHg 32%
05:00 +26°C° 0.1 mm 1 mps 649 mmHg 29%
06:00 +28°C° 0.1 mm 1 mps 650 mmHg 26%
07:00 +30°C° 0.1 mm 1 mps 651 mmHg 23%
08:00 +31°C° 0 mm 2 mps 651 mmHg 21%
09:00 +32°C° 0 mm 2 mps 651 mmHg 20%
10:00 +35°C° 0 mm 2 mps 652 mmHg 18%
11:00 +36°C° 0 mm 3 mps 652 mmHg 17%
12:00 +36°C° 0 mm 4 mps 652 mmHg 16%
13:00 +37°C° 0 mm 5 mps 652 mmHg 14%
14:00 +37°C° 0 mm 4 mps 652 mmHg 14%
15:00 +37°C° 0 mm 4 mps 652 mmHg 14%
16:00 +37°C° 0 mm 4 mps 652 mmHg 14%
17:00 +35°C° 0 mm 3 mps 651 mmHg 17%
18:00 +34°C° 0 mm 2 mps 651 mmHg 20%
19:00 +31°C° 0 mm 1 mps 651 mmHg 23%
20:00 +30°C° 0 mm 1 mps 651 mmHg 24%
21:00 +29°C° 0 mm 1 mps 651 mmHg 26%
22:00 +29°C° 0 mm 1 mps 651 mmHg 28%
23:00 +28°C° 0 mm 1 mps 651 mmHg 29%

15 July, Wednesday

Time Temperature Precipitation Wind Pressure Humidity
00:00 +28°C° 0 mm 1 mps 650 mmHg 29%
01:00 +27°C° 0 mm 1 mps 650 mmHg 30%
02:00 +27°C° 0 mm 1 mps 650 mmHg 31%
03:00 +26°C° 0 mm 1 mps 650 mmHg 32%
04:00 +26°C° 0 mm 1 mps 650 mmHg 32%
05:00 +28°C° 0.1 mm 1 mps 651 mmHg 29%
06:00 +30°C° 0.1 mm 1 mps 652 mmHg 26%
07:00 +31°C° 0.1 mm 1 mps 652 mmHg 22%
08:00 +34°C° 0.1 mm 2 mps 653 mmHg 20%
09:00 +35°C° 0.1 mm 2 mps 653 mmHg 17%
10:00 +36°C° 0.1 mm 3 mps 653 mmHg 15%
11:00 +37°C° 0.1 mm 3 mps 653 mmHg 14%
12:00 +37°C° 0.1 mm 4 mps 653 mmHg 13%
13:00 +38°C° 0.1 mm 4 mps 653 mmHg 13%
14:00 +38°C° 0 mm 4 mps 653 mmHg 12%
15:00 +38°C° 0 mm 3 mps 653 mmHg 11%
16:00 +38°C° 0 mm 3 mps 652 mmHg 10%
17:00 +36°C° 0 mm 3 mps 652 mmHg 12%
18:00 +34°C° 0 mm 2 mps 652 mmHg 14%
19:00 +31°C° 0 mm 2 mps 651 mmHg 16%
20:00 +31°C° 0 mm 2 mps 651 mmHg 18%
21:00 +30°C° 0 mm 2 mps 651 mmHg 20%
22:00 +29°C° 0 mm 2 mps 651 mmHg 22%
23:00 +28°C° 0 mm 2 mps 651 mmHg 22%
Show more